This is the latest recevied weather packets stored in our database for station/object K4GSL. If no packets are shown the sender has not sent any weather packets the latest 10 day(s).
| Time | Temp. | Humidity | Pressure | Rain* | Wind** | Luminosity | Snow |
|---|---|---|---|---|---|---|---|
| 1777907797 | 12.78° C | 92% | 1018.1 hPa | 0 mm | - | 51 W/m² | - |
| 1777907493 | 12.78° C | 92% | 1018 hPa | 0 mm | - | 47 W/m² | - |
| 1777907190 | 12.22° C | 93% | 1017.9 hPa | 0 mm | - | 47 W/m² | - |
| 1777906887 | 12.22° C | 94% | 1018.1 hPa | 0 mm | - | 45 W/m² | - |
| 1777906584 | 12.22° C | 95% | 1017.8 hPa | 0 mm | - | 41 W/m² | - |
| 1777906280 | 11.67° C | 95% | 1017.9 hPa | 0 mm | - | 35 W/m² | - |
| 1777905977 | 11.67° C | 97% | 1018 hPa | 0 mm | - | 35 W/m² | - |
| 1777905673 | 11.67° C | 97% | 1018 hPa | 0 mm | - | 34 W/m² | - |
| 1777905370 | 11.67° C | 98% | 1017.9 hPa | 0 mm | - | 34 W/m² | - |
| 1777905068 | 11.67° C | 99% | 1017.8 hPa | 0 mm | - | 35 W/m² | - |
| 1777904765 | 11.11° C | 99% | 1017.8 hPa | 0 mm | - | 32 W/m² | - |
| 1777904462 | 11.11° C | 99% | 1017.6 hPa | 0 mm | - | 32 W/m² | - |
| 1777904158 | 11.11° C | 99% | 1017.6 hPa | 0 mm | - | 31 W/m² | - |
| 1777903855 | 11.11° C | 99% | 1017.6 hPa | 0 mm | - | 31 W/m² | - |
| 1777903552 | 10.56° C | 99% | 1017.6 hPa | 0 mm | - | 29 W/m² | - |
| 1777903248 | 10.56° C | 99% | 1017.5 hPa | 0 mm | - | 24 W/m² | - |
| 1777902944 | 10.56° C | 99% | 1017.3 hPa | 0 mm | - | 22 W/m² | - |
| 1777902641 | 10° C | 99% | 1017.3 hPa | 0 mm | - | 19 W/m² | - |
| 1777902338 | 10° C | 99% | 1016.9 hPa | 0 mm | - | 15 W/m² | - |
| 1777902036 | 9.44° C | 99% | 1017.2 hPa | 0 mm | - | 14 W/m² | - |
| 1777901734 | 9.44° C | 98% | 1016.9 hPa | 0 mm | - | 13 W/m² | - |
| 1777901431 | 8.89° C | 98% | 1017.1 hPa | 0 mm | - | 13 W/m² | - |
| 1777901129 | 8.89° C | 98% | 1016.9 hPa | 0 mm | - | 12 W/m² | - |
| 1777900826 | 8.89° C | 97% | 1017 hPa | 0 mm | - | 9 W/m² | - |
| 1777900523 | 8.89° C | 97% | 1016.9 hPa | 0 mm | - | 6 W/m² | - |
* Rain latest hour (hover to see other rain measurements)
** Current wind speed in m/s (hover to see current wind gust speed)